Regional Weather Roundup
Issued by NWS Upton, NY

Current Version | Previous Version | Graphics & Text | Print | Product List | Glossary Off
Versions: 1 2 3 4 5 6 7 8 9 10 11 12 13 14 15 16 17 18 19 20 21 22 23 24 25 26 27 28 29 30 31 32 33 34 35 36 37 38 39 40 41 42 43 44 45 46 47 48 49 50

000
ASUS41 KOKX 171805
RWROKX

REGIONAL WEATHER ROUNDUP
NATIONAL WEATHER SERVICE NEW YORK NY
200 PM EDT WED SEP 17 2014

NOTE: "FAIR" INDICATES FEW OR NO CLOUDS BELOW 12,000 FEET WITH NO
SIGNIFICANT WEATHER AND/OR OBSTRUCTIONS TO VISIBILITY.

NYZ071-072-176-178-NJZ106-104-171900-
NEW YORK CITY METRO AREA


CITY           SKY/WX    TMP DP  RH WIND       PRES   REMARKS
CENTRAL PARK   SUNNY     72  41  32 VRB5      30.02F
LAGUARDIA APRT MOSUNNY   70  41  34 NW9       29.99F
KENNEDY INTL   MOSUNNY   73  45  35 S9        30.01F
NEWARK/LIBERTY MOSUNNY   73  43  33 NW9G20    30.00F
BRNX BOT. GARD   N/A     70  43  37 N10       30.02S
TETERBORO      SUNNY     72  40  31 VRB3      29.98F
$$

NYZ177-179-078>081-171900-
LONG ISLAND NEW YORK

CITY           SKY/WX    TMP DP  RH WIND       PRES   REMARKS
FARMINGDALE    SUNNY     70  42  36 NW6       30.00F
ISLIP          MOSUNNY   69  41  36 N6        29.99F
SHIRLEY        SUNNY     70  41  34 NW9       30.00F
WESTHAMPTON    SUNNY     71  42  35 NW10      30.01F
MONTAUK POINT    N/A     69  37  30 W7        30.00F
$$

NYZ052-065-067-171900-
HUDSON VALLEY

CITY           SKY/WX    TMP DP  RH WIND       PRES   REMARKS
WHITE PLAINS   MOSUNNY   68  40  35 NW9       29.99F
NEWBURGH       MOSUNNY   64  46  52 NW12      30.01F
MONTGOMERY     MOSUNNY   69  44  40 VRB7      29.99F
POUGHKEEPSIE   MOSUNNY   68  43  40 W7        29.99F
ALBANY         MOSUNNY   67  47  48 N6        30.00F
$$

NJZ001-105-106-008-010-013-015-019>022-104-171900-
NEW JERSEY

CITY           SKY/WX    TMP DP  RH WIND       PRES   REMARKS
NEWARK/LIBERTY MOSUNNY   73  43  33 NW9G20    30.00F
TETERBORO      SUNNY     72  40  31 VRB3      29.98F
CALDWELL       MOSUNNY   71  41  33 VRB5      30.00F
MORRISTOWN     MOSUNNY   70  41  35 NW7       30.01
SOMERVILLE     MOSUNNY   70  43  37 VRB6      29.98F
LINDEN         FAIR      75  45  34 NW6       30.01F
SUSSEX         MOSUNNY   70  44  39 VRB3      30.00F
ANDOVER          N/A     67  43  41 CALM      30.01F
TRENTON        MOSUNNY   71  45  39 VRB6      30.00F
MILLVILLE      SUNNY     73  44  35 SW5       30.00F
ATLANTIC CITY  CLOUDY    71  48  43 N9        30.00F
WRIGHTSTOWN    PTSUNNY   70  48  46 VRB1      29.98F
TOMS RIVER     CLOUDY    68  48  49 CALM      30.01F
BELMAR         MOSUNNY   70  46  43 SE3       30.01F
$$

PAZ047>061-062-071-171900-
EASTERN PENNSYLVANIA

CITY           SKY/WX    TMP DP  RH WIND       PRES   REMARKS
PHILADELPHIA   MOSUNNY   72  46  39 S5        30.00F
ALLENTOWN      SUNNY     68  43  40 W3        30.01F
SCRANTON       MOSUNNY   67  42  40 MISG      30.01F
$$

CTZ002-004>006-009-010-012-RIZ004-006-007-MAZ004-011-015-171900-
SOUTHERN NEW ENGLAND
 IN CT

CITY           SKY/WX    TMP DP  RH WIND       PRES   REMARKS
BRADLEY INTL   MOSUNNY   71  40  32 W10       29.98F
HARTFORD       SUNNY     69  42  37 SW9G17    29.98F
DANBURY        MOSUNNY   67  43  41 SW6       30.01F
WTRBRY/OXFORD  MOSUNNY   64  43  45 VRB6      30.01F
BRIDGEPORT     MOSUNNY   71  47  42 SW14      29.99F
MERIDEN        MOSUNNY   69  42  37 CALM      29.99F
NEW HAVEN      SUNNY     70  46  42 SW6       29.99F
CHESTER        FAIR      68  43  40 N3        29.99F
GROTON         SUNNY     68  46  45 S12       29.97F
WILLIMANTIC    SUNNY     69  40  34 NW5       29.99F

 IN RI

CITY           SKY/WX    TMP DP  RH WIND       PRES   REMARKS
PROVIDENCE     MOSUNNY   71  42  35 W8        29.97F
BLOCK ISLAND   SUNNY     70  41  35 W9        29.99F
WESTERLY       SUNNY     70  44  39 SW12      29.98F

 IN MA

CITY           SKY/WX    TMP DP  RH WIND       PRES   REMARKS
BOSTON         MOSUNNY   68  47  46 E9        29.96F
WORCESTER      SUNNY     64  42  44 W10       29.99F
WESTFIELD      MOSUNNY   69  43  38 NW7       29.98F
PROVINCETOWN   SUNNY     68  54  60 W5        29.98F
NANTUCKET      MOSUNNY   69  55  60 S10       29.98F
$$

ANZ330-335-338-340-345-350-353-355-171900-
COASTAL MARINE OBSERVATIONS


STATION/POSITION TIME  SKY/WX   TEMP    WIND        PRES    VSBY  WAVE
                                AIR SEA DIR/SP/G                  HT/PER
                 (UTC)          (F)     (DEG/KT/KT) (MB)    (MI)  (FT/S)
NY HARB ENTRANCE NOT AVBL
4S FIRE IS       NOT AVBL
23SW MTP         1800                                 N/A           4/13
HUDSON CANYON    1800            66 74   20/  8/ 12 1015.7          4/14
EXECUTION ROCKS  1800            67 72  180/  2/  4   N/A
WESTERN LI SOUND 1700            65     180/  4/  6   N/A           0
CENTRAL LI SOUND 1700            65 71  210/  4/  6   N/A           1
EASTERN LI SOUND 1700            67 69  200/  6/  8   N/A
ROBBINS REEF     1800            67     290/  8/ 11 1014.7
$$


>>>>>>>>>>>>>>>>>>>>>>>>>>>> KEY <<<<<<<<<<<<<<<<<<<<<<<<<<<
>                                                          <
>     SKY/WX - SKY CONDITION/PRESENT WEATHER               <
>     TMP    - TEMPERATURE IN FAHRENHEIT                   <
>     DP     - DEWPOINT IN FAHRENHEIT                      <
>     RH     - RELATIVE HUMIDITY IN PERCENT                <
>     WIND   - DIRECTION AND SPEED IN MPH                  <
>     PRES   - MEAN SEA LEVEL PRESSURE IN INCHES OF HG     <
>     WCI    - WIND CHILL INDEX                            <
>     VSB    - VISIBILITY IN MILES                         <
>     HX     - HEAT INDEX                                  <
>     TC     - TEMPERATURE IN CELSIUS                      <
>     VRB    - VARIABLE WIND DIRECTION                     <
>                                                          <
>>>>>>>>>>>>>>>>>>>>>>>>>>>> KEY <<<<<<<<<<<<<<<<<<<<<<<<<<<





USA.gov is the U.S. government's official web portal to all federal, state and local government web resources and services.